Location: Bailleul
(50.3375°N, 2.8513°E)
Time: 19:19:38
(UTC+00:00)

SJ-6B - Pass Details

Date: 19 April 2021
Orbit: 510 x 579 km, 97.6° (Epoch: 18 May)

Event Time Altitude Azimuth Distance (km) Brightness Sun altitude
Rises 19:31:19 0° 167° (SSE) 2,610 5.9 -6.9°
Reaches altitude 10° 19:33:23 10° 169° (SSE) 1,730 5.0 -7.2°
Maximum altitude 19:37:07 81° 256° (WSW) 527 2.8 -7.7°
Drops below altitude 10° 19:40:54 10° 345° (NNW) 1,761 6.1 -8.3°
Sets 19:43:02 0° 346° (NNW) 2,662 7.0 -8.6°
